Flag for Finland Weather past 2 weeks in Ivalo, Finland

Now
48 °F

Overcast.


Feels Like: 45 °F
Forecast: 41 / 49 °F
Wind: 7 mph from North

Location: Ivalo

Current Time: Jul 4, 2015 at 11:47:04 AM

Latest Report: Jul 4, 2015 at 10:50 AM


Visibility: N/A

Pressure: 30.04 "Hg

Humidity: 58%

Dew point: 34 °F

Location of IvaloLocation

Historic Weather in Ivalo — Graph

°F

Ivalo temperature yesterday

Maximum temperature yesterday: 59 °F (at 4:20 PM)
Minimum temperature yesterday: 46 °F (at 11:20 PM)
Average temperature yesterday: 54 °F

Past Weeks' High & Low Weather Summary

 TemperatureHumidityPressure
High72 °F (Jun 22, 5:20 PM)100% (Jun 23, 2:50 AM)30.24 "Hg (Jun 23, 2:50 AM)
Low37 °F (Jun 20, 2:20 AM)19% (Jun 23, 6:20 PM)29.53 "Hg (Jun 25, 4:20 PM)
Average53 °F69%29.89 "Hg
* Reported Jun 19 10:21 AM — Jul 4 10:20 AM, Ivalo, Weather by CustomWeather, © 2015

Note: Actual official high and low records may vary slightly from our data, if they occured in-between our weather recording intervals... More about our weather records

Advertising

Ivalo weather history for previous 24 hours

 ConditionsComfort  
Time TempWeatherWind HumidityBarometerVisibility
10:20 AM
Sat, Jul 4
48 °FOvercast.6 mph58%30.04 "HgN/A
9:50 AM48 °FOvercast.8 mph58%30.04 "HgN/A
9:20 AM46 °FOvercast.7 mph66%30.04 "HgN/A
8:50 AM46 °FPartly sunny.7 mph66%30.04 "HgN/A
8:20 AM46 °FPartly sunny.5 mph66%30.04 "HgN/A
7:50 AM45 °FSunny.2 mph76%30.04 "Hg10 mi
7:20 AM45 °FSunny.1 mph76%30.04 "Hg10 mi
6:50 AM45 °FSunny.1 mph76%30.04 "Hg10 mi
6:20 AM43 °FSunny.1 mph81%30.04 "Hg10 mi
5:50 AM43 °FSunny.2 mph81%30.04 "Hg10 mi
5:20 AM43 °FSunny.No wind81%30.04 "Hg10 mi
4:50 AM41 °FSunny.1 mph87%30.04 "Hg10 mi
4:20 AM41 °FSunny.1 mph81%30.04 "Hg10 mi
3:50 AM41 °FSunny.1 mph81%30.04 "Hg10 mi
3:20 AM43 °FSunny.1 mph76%30.04 "Hg10 mi
2:50 AM41 °FSunny.1 mph76%30.04 "Hg10 mi
2:20 AM41 °FSunny.3 mph81%30.04 "Hg10 mi
1:50 AM45 °FSunny.2 mph66%30.04 "Hg10 mi
1:20 AM45 °FSunny.2 mph66%30.04 "Hg10 mi
12:50 AM45 °FSunny.5 mph71%30.04 "Hg10 mi
12:20 AM45 °FSunny.2 mph71%30.04 "Hg10 mi
11:50 PM
Fri, Jul 3
46 °FSunny.5 mph66%30.04 "Hg10 mi
11:20 PM46 °FSunny.3 mph66%30.04 "Hg10 mi
10:50 PM48 °FSunny.7 mph62%30.04 "Hg10 mi
10:20 PM50 °FSunny.10 mph58%30.01 "Hg10 mi
9:50 PM52 °FSunny.12 mph54%30.01 "Hg10 mi
9:20 PM52 °FPassing clouds.12 mph54%30.01 "HgN/A
8:50 PM52 °FSunny.13 mph54%30.01 "Hg10 mi
8:20 PM54 °FPassing clouds.12 mph54%30.01 "HgN/A
7:50 PM55 °FSunny.15 mph55%30.01 "Hg10 mi
7:20 PM55 °FSunny.13 mph55%30.01 "Hg10 mi
6:50 PM57 °FPassing clouds.14 mph51%29.98 "HgN/A
6:20 PM57 °FPassing clouds.13 mph51%29.98 "HgN/A
5:50 PM57 °FPassing clouds.12 mph55%29.98 "HgN/A
5:20 PM59 °FPartly sunny.8 mph51%29.98 "HgN/A
4:50 PM59 °FPartly sunny.7 mph51%29.98 "HgN/A
4:20 PM59 °FPartly sunny.5 mph55%29.98 "HgN/A
3:50 PM57 °FPartly sunny.9 mph59%29.98 "HgN/A
3:20 PM57 °FScattered clouds.6 mph59%29.98 "HgN/A
2:50 PM57 °FScattered clouds.6 mph55%29.98 "HgN/A
2:20 PM55 °FOvercast.8 mph63%29.98 "HgN/A
1:50 PM55 °FOvercast.10 mph67%29.98 "HgN/A
1:20 PM55 °FOvercast.9 mph67%29.98 "HgN/A
12:50 PM55 °FBroken clouds.9 mph72%29.95 "HgN/A
12:20 PM55 °FPartly sunny.9 mph72%29.95 "HgN/A
11:50 AM55 °FPartly sunny.8 mph72%29.95 "HgN/A
11:20 AM55 °FPartly sunny.9 mph82%29.92 "HgN/A
Weather by CustomWeather, © 2015

See weather overviewHow to use our weather pages